Hourly Data Report for October 15, 2015

All times are specified in Local Standard Time (LST). Add 1 hour to adjust for Daylight Saving Time where and when it is observed.

KAMLOOPS A
BRITISH COLUMBIA

50°42'09.000" N
120°26'55.000" W
345.30 m
1163781
71887
YKA

Download Data

Hourly Data (October 2015)
Hourly Data Report for October 15, 2015
Temp Definition
°C
Dew Point Temp Definition
°C
Rel Hum Definition
%
Wind Dir Definition
10's deg

Wind Spd Definition
km/h
Visibility Definition
km
Stn Press Definition
kPa
Hmdx Definition


Wind Chill Definition


Weather Definition


TIME
00:00 Legend Double Dagger 4.2 -0.4 72 9 7 64.4 98.74     LegendNANA
01:00 Legend Double Dagger 3.8 -0.4 74 36 2 64.4 98.75     Mainly Clear
02:00 Legend Double Dagger 3.0 -0.8 76 36 1 64.4 98.81     LegendNANA
03:00 Legend Double Dagger 1.6 -1.5 80 36 1 64.4 98.79     LegendNANA
04:00 Legend Double Dagger 0.7 -1.7 84 9 8 64.4 98.79     Clear
05:00 Legend Double Dagger 2.3 -0.1 84 9 3 64.4 98.83     LegendNANA
06:00 Legend Double Dagger 0.7 -1.9 83 7 8 64.4 98.82     LegendNANA
07:00 Legend Double Dagger 2.1 -0.5 83 7 4 64.4 98.79     Mostly Cloudy
08:00 Legend Double Dagger 3.5 0.2 79 10 3 64.4 98.80     LegendNANA
09:00 Legend Double Dagger 5.7 0.7 70 12 12 64.4 98.77     LegendNANA
10:00 Legend Double Dagger 7.8 1.0 62 8 7 64.4 98.70     Mostly Cloudy
11:00 Legend Double Dagger 9.7 1.1 55 12 13 64.4 98.61     LegendNANA
12:00 Legend Double Dagger 11.9 1.6 49 10 15 64.4 98.50     LegendNANA
13:00 Legend Double Dagger 13.3 1.4 44 11 17 64.4 98.38     Mostly Cloudy
14:00 Legend Double Dagger 14.2 1.2 41 10 17 64.4 98.26     LegendNANA
15:00 Legend Double Dagger 14.7 1.3 40 10 16 64.4 98.20     LegendNANA
16:00 Legend Double Dagger 14.4 2.4 44 9 13 64.4 98.13     Mostly Cloudy
17:00 Legend Double Dagger 11.6 1.0 48 9 9 64.4 98.11     LegendNANA
18:00 Legend Double Dagger 10.8 2.2 55 10 8 64.4 98.11     LegendNANA
19:00 Legend Double Dagger 9.5 3.1 64 11 14 64.4 98.13     Mostly Cloudy
20:00 Legend Double Dagger 8.1 2.4 67 11 15 64.4 98.14     LegendNANA
21:00 Legend Double Dagger 6.9 2.4 73 10 11 64.4 98.14     LegendNANA
22:00 Legend Double Dagger 5.3 1.1 74 11 7 64.4 98.14     Mainly Clear
23:00 Legend Double Dagger 4.4 0.7 77 8 10 64.4 98.15     LegendNANA

Notes on Data Quality.

Legend

  • E = Estimated
  • M = Missing
  • NA = Not Available
  • ‡ = Partner data that is not subject to review by the National Climate Archives
Date modified: